Location: Staunton
(38.1490°N, 79.0720°W)
Time: 01:14:01
(UTC-04:00)

ISS - Pass Details

Date: 23 March 2018
Orbit: 402 x 408 km, 51.6° (Epoch: 20 July)

Event Time Altitude Azimuth Distance (km) Brightness Sun altitude
Rises 21:33:16 0° 242° (WSW) 2,340 0.6 -24.2°
Reaches altitude 10° 21:35:23 10° 247° (WSW) 1,483 -0.4 -24.6°
Enters shadow 21:37:23 31° 266° (W) 758 -2.0 -24.9°
